Wind_Speed
9 11 9 8 8 8 8 7 7 7 6 6 6 6 6 6 5 5 3 4 4 5 7 7 5 5 4 6 7 7 6 6 8 8 8 7 7 6 6 6 6 7 8 6 5 6 5 4 7 13 15 17 19 17 15 15 13 12 15 15 13 14 14
10 10 10 8 9 8 7 7 7 7 6 6 6 5 6 6 5 5 4 3 4 4 7 6 5 4 4 5 6 6 5 6 7 8 10 10 8 8 8 6 5 6 6 5 7 7 6 5 4 5 9 13 15 15 14 14 13 13 15 15 13 12 10
11 10 10 9 9 8 6 6 6 6 5 5 6 5 6 6 5 6 7 6 6 7 8 7 6 5 5 5 5 5 6 8 8 9 10 8 7 9 8 6 6 6 5 5 4 5 6 5 6 6 9 10 9 10 13 14 14 13 13 14 15 12 8
10 10 11 9 9 8 7 6 6 6 6 6 5 5 6 6 7 8 8 8 7 7 7 6 6 6 6 6 7 6 7 7 8 10 12 10 9 8 6 8 8 7 6 5 6 7 5 4 6 6 9 13 11 11 13 15 15 14 13 13 13 12 8
10 10 10 9 9 8 7 7 6 6 6 6 6 5 6 6 8 9 8 9 8 8 7 6 7 8 8 8 8 8 9 8 8 10 13 13 12 10 9 11 9 6 8 10 11 11 9 8 8 8 10 14 11 9 13 15 14 15 14 13 12 12 9
10 9 9 9 9 8 7 7 6 7 7 7 7 6 6 6 8 10 10 9 8 7 7 7 8 9 9 11 11 11 11 11 10 11 14 14 12 11 12 12 12 11 9 11 13 12 12 12 10 10 13 15 12 10 12 14 14 14 13 13 13 12 11
12 10 9 8 8 7 6 6 6 7 7 7 8 6 6 7 8 10 11 9 8 8 7 9 10 10 11 12 13 13 14 14 14 14 15 14 12 12 12 11 15 17 15 14 14 14 14 13 11 11 15 13 14 14 14 15 15 13 12 12 11 11 10
15 13 11 9 8 7 6 5 5 7 8 8 8 7 6 7 8 10 10 8 9 9 8 9 10 10 12 13 13 14 15 16 16 15 15 14 13 11 11 11 12 14 16 18 17 15 16 13 8 16 18 9 9 10 10 13 15 13 13 12 10 9 9
17 15 13 11 8 7 6 5 5 7 9 9 8 7 7 8 8 9 10 9 9 9 8 8 9 11 12 12 12 13 14 15 15 15 15 14 13 12 12 13 12 12 13 15 12 10 11 9 9 16 15 10 6 5 5 8 10 11 13 14 12 10 9
17 16 15 13 9 8 7 6 7 8 9 9 8 8 8 9 9 9 10 10 10 9 9 9 9 10 12 11 12 13 13 15 15 15 15 14 13 13 13 14 13 13 13 13 12 12 12 11 11 9 7 8 7 4 4 4 4 7 10 12 13 10 7
17 16 16 14 10 9 8 8 9 9 9 10 9 9 9 9 9 9 10 10 10 9 9 10 9 9 11 11 12 13 14 15 15 15 14 13 13 14 15 16 16 16 15 14 14 13 12 10 8 9 11 13 13 6 8 7 4 7 10 12 12 10 8
17 16 17 14 11 10 9 9 9 9 10 10 9 10 9 9 9 9 10 10 9 9 9 9 9 9 10 11 11 13 13 14 15 15 15 14 14 15 17 17 17 16 14 14 13 13 12 10 9 11 12 14 17 13 16 14 6 6 10 11 9 8 8
17 16 16 14 12 11 10 10 10 10 10 10 9 10 9 9 9 9 9 8 8 9 8 8 8 9 9 10 10 12 12 13 15 15 15 15 15 16 16 16 15 14 13 14 13 13 14 14 13 13 11 12 15 15 19 18 10 7 9 9 7 6 6
16 16 15 14 11 11 11 11 10 10 10 10 9 9 8 8 8 8 7 7 7 7 8 8 8 8 8 9 10 11 11 12 14 14 15 14 15 15 15 14 13 13 14 13 12 12 12 11 10 11 11 11 12 12 15 18 15 10 8 8 7 5 4
16 15 14 13 11 11 12 12 11 11 10 10 9 8 8 8 8 7 7 7 7 7 7 7 7 7 8 10 10 10 11 12 13 14 14 14 14 14 14 13 12 12 11 8 9 11 8 6 9 13 13 12 11 10 9 13 16 13 9 7 6 5 4
16 15 13 12 12 12 13 12 12 11 10 10 9 8 9 8 8 8 8 8 8 7 7 7 7 7 9 9 9 9 11 13 12 12 12 13 12 12 12 11 11 10 9 7 8 9 8 9 13 14 12 10 8 7 8 9 13 15 13 9 7 8 6
17 15 13 12 12 13 13 12 12 11 10 10 9 8 9 9 8 8 8 8 8 8 8 7 7 8 8 8 7 9 11 11 11 10 11 11 10 10 10 10 9 8 7 7 7 7 7 9 11 11 9 7 5 3 4 8 8 9 11 11 8 7 5
16 15 12 11 12 12 13 13 12 11 10 10 9 8 9 9 8 9 9 9 9 9 9 8 8 8 8 7 7 8 9 9 9 9 9 10 10 9 9 9 8 7 7 6 6 5 3 3 6 6 7 9 8 5 4 5 5 2 2 6 8 6 2
14 14 12 12 12 12 12 12 12 12 11 10 9 8 9 9 9 9 9 9 10 10 10 9 9 8 8 8 7 7 8 8 8 7 7 9 9 9 8 8 8 7 6 5 4 4 3 2 4 4 5 7 8 6 5 5 3 2 2 3 3 5 4
14 14 13 12 13 13 12 12 12 12 12 11 9 8 8 8 8 9 9 9 10 10 10 11 10 10 9 8 8 8 8 8 7 7 7 8 8 8 8 8 8 7 6 5 4 5 5 2 2 1 4 5 5 5 5 3 1 2 2 2 2 3 7
12 13 12 12 12 12 13 13 12 12 11 11 10 9 8 8 8 8 9 9 9 10 11 11 11 11 10 10 10 9 9 9 8 8 8 8 8 9 8 7 8 8 7 6 6 6 6 3 2 1 0 1 2 4 4 1 2 1 0 4 5 3 4
9 10 11 11 10 11 12 12 12 11 10 10 10 9 9 9 9 9 9 8 9 9 10 11 11 12 12 12 12 12 11 11 11 10 10 10 10 10 10 10 11 12 10 9 8 7 5 3 3 3 3 3 2 2 2 2 3 2 3 6 7 5 4
7 8 9 9 9 10 10 9 10 9 7 8 9 10 11 11 10 10 10 9 9 9 9 10 11 12 13 13 14 14 14 14 13 13 13 13 12 12 13 14 14 13 12 9 8 8 6 6 6 6 4 4 5 5 3 2 3 4 4 7 8 7 7
6 7 7 6 7 8 8 8 9 8 7 9 11 11 10 10 10 11 10 8 6 5 6 8 10 13 14 14 14 15 15 15 15 15 15 15 15 14 14 14 14 14 12 11 10 10 9 9 10 10 8 6 7 9 7 4 3 3 3 5 7 5 6
6 5 4 4 5 6 7 7 8 8 9 12 13 12 10 10 11 12 12 11 7 5 7 11 12 13 15 16 16 15 15 15 16 16 16 16 16 15 14 13 13 13 12 12 12 12 12 12 12 13 13 11 9 11 10 7 5 3 1 3 4 4 4
5 5 4 4 3 4 5 6 6 7 8 9 12 13 13 13 14 14 16 16 11 7 9 14 17 16 15 17 19 19 17 17 17 17 18 18 16 15 14 12 11 12 12 13 14 16 16 14 13 14 16 15 13 13 13 11 9 7 3 1 3 4 3
5 4 3 3 3 3 5 5 6 6 7 8 11 14 15 15 16 17 18 17 15 12 11 16 21 23 21 20 22 23 21 18 17 19 19 15 10 9 12 15 15 13 13 16 18 18 16 15 14 15 16 17 17 15 14 13 12 11 8 5 1 1 1
9 7 4 2 1 3 4 6 7 8 8 10 12 14 15 16 17 18 19 17 15 15 16 16 20 25 26 25 25 25 25 22 17 16 15 9 5 7 11 16 18 16 16 20 21 19 17 16 14 14 15 17 17 15 14 14 13 12 10 7 5 4 3
13 11 9 7 5 5 4 5 6 7 8 10 12 14 15 16 16 17 19 18 16 16 18 19 21 25 27 26 26 27 29 27 21 17 15 11 9 10 12 16 18 19 20 22 20 17 17 16 14 13 13 14 13 13 14 14 12 11 10 7 7 6 5
17 15 13 11 10 9 7 6 6 6 7 9 11 13 14 15 16 17 19 20 18 18 21 23 25 28 28 27 26 27 30 29 25 20 18 14 13 14 15 17 18 19 20 21 18 15 15 15 14 12 11 13 14 13 13 13 12 11 10 8 7 7 7
17 16 15 14 14 12 11 10 10 9 8 9 10 12 13 14 16 17 19 20 20 20 22 23 24 27 29 29 28 27 29 28 23 19 18 17 15 15 16 17 18 20 21 20 17 16 15 15 13 11 12 16 15 11 11 14 14 12 10 9 7 7 8
14 14 14 14 14 14 13 12 12 13 12 12 12 12 13 14 16 17 18 19 19 20 20 21 22 24 28 31 30 28 28 25 21 19 18 17 16 15 15 17 18 18 19 18 17 17 17 16 13 12 15 18 15 12 12 13 13 12 9 6 5 6 8
15 14 13 14 14 14 14 14 14 15 15 16 15 15 15 15 15 15 16 16 18 20 20 20 22 24 26 27 27 28 28 24 20 18 17 16 16 15 15 15 14 14 17 19 18 17 18 17 15 14 17 17 14 14 13 11 10 9 6 3 3 6 8
16 15 15 16 16 16 16 16 16 17 17 17 17 18 18 18 18 17 15 15 15 17 18 18 19 24 26 23 22 27 29 24 20 18 19 18 17 15 15 15 15 15 17 17 17 17 19 18 15 14 17 15 11 12 13 12 11 9 4 2 3 5 6
17 18 18 18 19 19 19 18 18 18 19 19 19 20 20 19 20 19 16 15 15 16 17 16 16 21 26 23 21 25 27 24 21 21 21 19 18 16 16 19 20 17 15 16 17 19 19 16 13 14 15 14 13 14 12 8 7 5 2 2 3 4 5
18 18 19 19 20 21 21 20 20 20 20 21 21 22 22 21 21 20 17 16 14 13 14 15 15 19 24 24 23 25 26 23 20 20 21 20 20 20 20 22 21 19 17 19 20 20 18 14 13 13 13 12 11 10 8 5 4 4 2 1 3 5 7
18 19 20 21 21 22 22 21 22 21 22 22 22 22 22 21 20 20 18 15 15 14 13 13 15 19 22 23 24 27 27 23 19 20 21 20 21 23 22 22 23 21 21 22 21 19 16 13 11 10 8 7 5 4 4 5 4 3 2 2 4 6 7
Wind_Direction
156 144 148 149 138 136 141 140 136 133 128 122 118 116 114 114 116 113 123 151 164 176 171 162 163 181 177 162 161 155 166 180 158 158 178 180 183 184 171 144 112 129 139 124 141 141 121 123 91 76 78 86 94 98 100 105 107 113 117 113 110 107 106
143 151 151 146 141 144 149 146 141 133 127 121 119 118 114 108 111 109 105 93 72 100 129 128 132 142 139 142 136 131 145 151 143 150 159 171 183 170 164 157 129 134 134 125 148 134 102 120 116 86 92 91 90 98 108 113 109 111 117 119 119 113 111
155 164 149 144 145 149 154 145 137 137 136 126 115 109 109 104 99 99 101 94 69 72 91 98 105 108 108 121 124 128 130 125 132 140 142 150 161 158 160 142 134 160 142 118 157 134 98 110 117 126 129 111 103 120 126 121 114 110 110 112 114 111 107
166 160 148 151 154 155 161 158 153 147 136 129 125 110 103 103 103 102 100 97 88 82 89 98 106 101 92 96 106 114 112 113 125 129 125 125 128 134 139 129 144 180 161 150 184 164 145 149 135 141 142 131 136 150 147 137 130 124 115 110 110 111 112
163 159 158 161 163 166 171 168 160 146 133 134 137 123 109 107 111 113 105 100 98 89 87 92 100 102 94 91 94 96 99 106 115 116 111 113 120 118 115 123 136 162 169 174 176 168 178 179 154 155 148 136 136 147 146 138 129 124 120 118 116 114 112
166 167 169 169 169 172 173 171 164 151 147 147 139 125 119 119 118 118 111 104 104 97 92 91 93 100 96 90 89 89 95 102 108 110 106 106 114 115 114 129 142 141 147 164 164 166 180 184 177 162 141 135 136 141 145 138 125 118 113 113 113 109 108
167 167 172 176 172 172 173 174 169 154 147 142 134 127 126 122 115 116 114 108 107 105 99 96 94 98 98 93 91 90 93 98 103 106 104 102 104 113 121 138 152 147 137 142 151 154 166 194 204 151 126 135 150 156 160 147 129 118 111 110 113 112 109
164 165 172 176 173 173 175 172 157 144 142 137 131 128 126 122 116 115 116 112 111 110 109 106 99 97 99 98 97 98 99 102 106 107 107 108 109 115 121 120 130 138 139 144 149 153 167 196 188 134 132 154 165 162 158 136 123 120 118 114 113 117 119
163 164 166 170 173 171 169 162 145 140 140 134 130 130 128 124 119 116 114 113 114 114 115 114 106 103 105 104 103 104 106 107 108 108 107 109 109 107 111 111 104 98 114 130 127 128 150 156 122 126 148 167 152 139 128 113 120 129 126 120 113 109 113
162 164 162 162 165 164 163 154 140 138 137 133 133 134 130 124 120 118 116 115 115 114 113 112 109 108 110 109 106 106 108 108 108 109 110 108 107 104 105 111 104 90 94 100 91 88 98 106 102 100 123 121 99 119 140 109 111 117 110 112 116 116 110
158 159 159 158 160 160 159 156 146 141 138 137 138 135 131 125 120 119 116 114 115 115 116 118 117 115 115 113 111 110 112 112 110 110 111 108 102 100 100 102 101 99 100 95 91 90 87 94 88 58 65 73 57 68 132 121 91 93 90 89 101 117 118
150 153 156 154 159 161 161 160 153 149 147 143 143 139 133 128 122 119 117 115 117 118 119 122 121 121 121 118 117 119 119 119 117 113 112 110 103 101 103 104 104 104 102 96 93 91 87 91 85 62 63 64 55 75 115 114 87 81 94 92 91 103 111
144 151 155 152 157 162 162 161 157 157 155 150 149 145 138 135 131 126 123 121 122 124 123 124 125 126 128 127 125 126 125 123 122 119 117 116 112 110 109 108 109 107 102 97 93 87 79 79 82 75 70 65 61 78 103 104 91 78 93 105 106 106 116
147 150 153 152 156 160 162 163 162 161 161 159 159 156 152 149 143 137 134 132 130 132 132 130 130 130 130 131 130 129 129 126 123 123 124 121 117 114 110 105 101 102 105 102 98 99 93 89 96 87 77 73 66 73 97 110 114 108 105 117 116 111 116
151 154 152 152 157 161 163 166 166 166 167 168 168 167 163 159 155 151 146 143 139 138 139 137 137 135 129 130 131 131 131 127 123 123 120 115 114 113 110 107 102 104 108 98 98 111 106 95 107 97 84 78 65 54 75 111 127 129 128 138 140 138 106
153 154 155 160 164 165 166 169 171 171 170 172 176 177 170 165 166 163 154 150 149 146 145 141 139 138 135 135 133 128 127 126 125 123 117 115 114 111 108 104 102 105 100 80 85 98 81 71 88 92 85 78 70 56 52 85 125 142 146 153 163 154 132
156 153 157 166 167 165 168 172 175 176 174 175 180 179 172 172 176 172 163 160 156 153 149 144 145 146 145 145 137 125 127 128 125 123 124 124 120 114 112 107 105 105 95 83 84 88 84 80 85 93 103 103 99 106 73 69 103 146 152 153 157 141 126
159 157 160 165 165 166 172 176 180 182 179 177 181 180 177 180 184 180 176 172 165 160 157 152 153 155 153 153 145 134 134 136 135 134 133 132 129 128 125 119 121 117 106 102 95 93 99 76 80 98 124 130 127 123 114 87 69 63 106 128 143 135 74
163 164 163 165 166 169 175 180 183 186 185 182 184 183 182 188 193 191 188 186 177 168 165 163 164 165 164 164 160 153 152 151 150 148 140 136 137 137 135 133 135 130 124 124 110 112 125 77 88 81 68 107 132 135 137 141 114 69 26 36 110 157 167
164 168 169 172 174 177 183 187 187 189 189 188 189 189 190 198 204 203 200 197 189 181 177 175 173 173 173 176 176 173 172 169 167 165 157 151 150 149 146 143 142 138 136 140 137 139 146 149 156 120 52 85 136 150 145 164 195 122 114 334 321 173 171
160 166 169 173 178 182 188 192 194 195 192 189 192 196 199 206 214 217 217 212 202 194 189 186 184 184 184 185 187 187 187 184 182 183 178 174 174 168 159 148 147 155 164 171 177 169 158 160 198 218 350 65 109 130 138 225 295 95 96 278 275 256 210
156 162 168 176 183 187 190 194 198 202 199 193 194 200 206 211 217 224 230 227 217 207 199 197 199 196 194 195 196 196 197 196 194 193 190 188 188 181 175 172 170 173 177 180 186 185 174 174 191 200 227 241 214 169 178 279 299 312 313 301 305 313 291
153 157 165 175 183 186 190 192 193 199 204 200 198 203 210 217 218 220 229 234 229 217 204 205 214 210 204 205 205 204 205 204 202 201 197 195 194 186 182 186 187 184 179 176 186 197 203 206 208 215 237 233 207 198 192 216 282 298 298 306 327 350 357
138 147 157 164 169 175 185 194 193 195 208 212 209 206 210 222 226 222 225 233 235 219 193 195 206 208 209 213 211 210 213 211 208 209 206 201 198 191 189 192 194 193 192 192 201 214 218 215 213 221 239 236 201 199 201 203 244 280 295 308 316 328 355
114 125 137 149 157 166 181 197 201 203 212 219 222 221 218 228 235 232 229 232 239 230 204 202 201 201 210 219 218 214 216 216 217 218 213 209 205 194 189 191 191 196 206 209 214 223 226 224 219 217 227 236 222 212 217 217 214 205 133 14 356 352 10
107 114 127 146 161 173 185 204 216 218 222 230 238 239 234 234 239 238 235 236 243 248 223 211 210 212 220 226 223 218 219 221 223 224 221 219 212 193 184 191 196 197 207 217 226 233 232 229 226 220 224 237 242 234 231 233 234 230 224 356 25 23 12
59 74 113 151 182 207 210 222 228 221 224 236 243 245 242 239 239 239 238 240 242 240 225 210 212 221 230 235 230 223 222 224 226 230 229 226 221 207 200 209 215 212 216 226 231 233 231 226 223 221 224 235 244 247 244 242 242 244 247 256 275 43 332
22 17 7 17 271 241 231 231 231 224 220 224 230 236 239 240 241 241 242 243 238 233 229 220 216 223 230 236 236 232 229 228 229 237 240 235 246 245 214 204 210 216 224 229 228 224 225 224 217 214 222 231 238 245 245 241 241 242 242 238 224 212 227
4 358 350 346 331 302 277 249 240 236 231 230 228 228 233 239 243 244 245 241 231 225 228 227 225 226 229 231 234 235 235 234 234 242 248 239 233 230 206 193 202 211 217 222 219 215 220 224 217 215 219 219 220 228 232 229 226 224 222 216 215 224 244
352 350 345 337 329 324 317 302 286 263 243 239 237 233 234 237 237 238 243 241 234 228 231 236 238 236 233 231 230 233 236 236 236 242 249 242 228 218 203 195 199 202 206 210 206 203 212 217 214 213 203 189 193 208 215 212 211 212 214 218 229 247 261
339 336 332 328 327 330 326 317 311 302 283 268 258 252 248 243 237 237 240 240 239 236 236 242 244 240 236 235 233 231 233 235 234 236 241 237 227 217 206 198 196 195 198 201 195 190 198 203 201 198 183 174 181 197 205 207 209 211 217 230 248 265 275
317 315 314 315 319 321 319 314 308 304 301 292 279 269 263 254 246 242 240 239 238 236 233 236 241 240 237 236 235 232 230 230 229 229 230 224 216 213 206 198 196 195 195 195 189 187 194 196 189 185 181 177 182 199 211 213 213 215 221 235 261 281 294
303 304 303 303 304 305 306 306 303 299 298 295 287 278 273 269 264 255 245 240 240 238 234 236 242 244 238 232 230 228 225 226 225 218 208 197 194 200 202 197 194 195 193 190 188 191 195 194 186 182 185 184 187 199 204 197 189 190 194 205 259 291 304
301 300 297 296 296 294 292 291 291 290 288 287 283 279 274 271 273 270 258 247 242 235 231 236 245 248 242 232 225 222 221 224 223 204 186 180 182 190 199 194 184 184 186 187 191 193 189 188 188 184 182 178 166 166 174 176 174 177 190 247 291 303 305
302 299 296 293 291 290 287 283 282 281 280 280 280 279 275 269 268 269 261 251 244 232 225 231 245 250 245 235 227 224 221 220 213 194 182 184 184 184 194 193 183 181 185 186 186 183 178 180 182 172 166 159 146 142 149 160 173 180 210 300 313 310 304
307 303 300 297 293 289 285 281 279 276 275 276 276 275 274 268 264 264 259 249 242 230 219 221 234 247 248 239 229 225 218 211 207 199 193 192 185 181 189 190 181 178 182 179 175 172 170 172 170 161 159 158 156 152 147 147 171 194 211 247 294 300 296
307 306 304 303 301 296 290 284 280 276 273 272 269 268 268 265 261 262 259 246 233 225 214 210 221 238 246 240 230 222 212 203 200 199 197 193 185 182 185 183 174 171 173 171 170 170 170 170 168 166 167 171 179 192 172 161 187 213 196 228 274 281 279
Height
814 815 816 816 817 817 818 819 819 820 821 822 823 823 823 823 822 821 820 819 818 817 818 818 819 820 821 822 823 824 825 827 828 829 828 828 830 832 834 836 836 837 837 838 838 840 842 846 848 849 849 850 851 852 852 853 853 853 854 854 855 855 855
814 815 815 816 816 817 818 818 819 819 820 821 822 823 823 823 822 821 820 818 818 817 818 818 819 820 821 823 823 824 825 826 827 829 829 829 831 832 833 835 836 837 837 838 838 839 841 844 848 850 850 851 851 853 854 854 854 855 855 855 855 856 856
814 815 815 815 816 817 818 818 818 819 819 820 821 822 822 822 821 820 820 819 818 818 818 819 820 821 822 823 823 824 825 826 828 829 829 829 830 831 832 835 836 836 837 838 839 840 841 843 847 849 850 851 852 854 855 855 855 856 856 856 856 857 857
814 814 814 815 816 817 817 818 818 818 819 820 821 822 822 822 821 820 820 819 819 819 819 820 820 821 822 823 824 825 825 826 827 828 829 829 829 830 832 834 835 835 836 838 838 839 841 843 845 847 849 851 852 853 854 855 856 856 857 858 858 858 858
813 813 814 815 815 816 817 817 817 818 818 820 821 822 822 821 820 820 819 819 819 819 820 820 821 821 822 823 824 825 825 826 827 828 829 830 830 831 832 834 835 835 835 837 838 839 841 842 843 845 847 849 851 853 854 855 856 857 857 858 859 859 859
811 813 814 815 816 816 817 817 817 817 818 819 820 821 821 821 819 819 819 819 819 820 820 820 821 822 822 823 824 825 825 826 827 828 829 830 831 832 833 835 836 837 836 837 838 839 840 841 842 843 845 847 850 852 853 854 856 857 858 859 859 860 860
809 812 814 815 816 816 816 816 816 817 818 819 820 821 821 820 819 818 818 819 820 820 820 821 821 822 823 824 824 825 826 826 827 828 829 830 831 833 833 835 837 837 836 836 837 838 839 839 840 841 843 846 848 850 851 853 854 856 858 859 859 860 861
806 809 812 813 815 815 815 816 816 817 818 819 819 820 820 819 818 818 818 818 819 820 821 822 822 822 823 825 826 826 827 828 829 829 830 831 832 833 834 834 836 836 836 836 837 838 837 838 839 840 841 844 847 848 849 851 853 855 857 858 859 860 860
803 806 809 811 813 814 815 815 815 816 817 818 819 820 819 819 818 818 818 818 819 820 821 822 823 823 824 825 826 827 828 829 830 830 831 832 833 833 834 834 835 835 836 837 838 838 838 838 839 840 840 842 844 846 848 850 852 854 856 857 858 860 860
801 804 806 809 811 812 814 814 815 816 817 818 819 819 819 818 818 818 818 819 819 820 821 822 823 824 825 825 826 827 828 829 830 831 832 833 833 833 834 835 835 835 836 836 837 837 837 838 839 840 841 841 842 844 847 850 852 853 855 856 857 859 860
800 802 804 807 810 811 813 814 814 815 816 818 819 819 819 818 818 818 818 819 819 820 821 822 823 824 825 826 826 827 828 829 830 831 832 833 833 834 834 835 836 836 837 838 838 838 838 839 840 840 841 841 841 842 844 848 852 853 854 856 857 858 859
799 801 803 806 809 810 812 813 814 815 816 817 818 818 818 818 818 818 818 819 820 820 821 822 823 824 825 826 827 828 829 829 830 831 832 833 833 834 835 836 837 838 839 839 839 840 841 841 841 842 842 842 842 843 843 846 851 854 855 855 857 858 859
799 801 803 805 807 810 811 813 813 815 816 817 817 817 818 818 818 818 819 819 820 821 822 822 823 824 825 826 827 828 828 829 830 831 832 833 834 835 836 837 838 839 840 840 841 842 842 842 843 843 844 844 844 845 846 847 851 854 855 856 857 858 859
800 802 803 804 806 809 811 812 813 815 816 816 817 817 817 817 818 818 819 819 820 821 822 823 824 825 825 826 827 828 829 829 830 831 832 833 834 835 836 837 838 839 840 841 842 842 843 843 844 844 845 845 846 847 847 848 851 854 856 856 857 858 859
801 802 803 804 806 808 810 812 814 815 815 816 816 816 817 817 818 818 819 820 821 821 822 823 824 825 826 827 827 828 829 829 830 831 832 833 834 835 836 837 838 839 840 841 841 842 843 844 844 844 845 846 847 848 848 849 851 853 855 856 857 858 859
800 801 802 804 806 807 810 812 814 815 815 816 816 816 816 817 817 818 819 820 821 822 822 823 825 826 827 827 828 828 829 830 831 831 832 834 835 836 836 837 838 839 840 841 841 842 843 844 844 845 846 847 848 849 849 851 852 853 854 855 856 857 858
799 801 803 805 806 807 810 812 814 815 815 815 815 815 816 816 817 818 819 820 821 822 823 824 825 827 828 829 829 829 830 830 831 832 833 834 835 836 837 838 839 840 841 842 842 843 844 845 845 846 847 848 849 849 850 850 852 852 853 854 854 856 857
799 801 803 805 806 808 810 812 814 814 814 815 815 815 816 816 817 818 819 820 821 822 823 824 826 828 829 830 831 831 831 832 833 833 834 835 836 837 838 839 840 841 842 843 844 844 845 846 846 847 847 848 849 850 850 850 851 852 852 853 853 855 856
800 801 803 805 807 808 810 812 813 814 814 814 815 815 816 817 818 819 820 821 821 822 823 825 827 829 830 831 832 832 833 833 834 834 835 835 836 837 838 839 840 841 842 843 844 845 846 846 847 847 848 849 850 850 851 851 851 851 852 853 853 854 855
801 802 804 805 807 808 810 811 812 812 813 813 814 815 816 817 818 820 821 821 822 823 824 825 827 829 831 832 833 833 834 834 835 835 835 836 837 838 838 839 840 841 842 843 844 845 845 846 847 847 848 849 850 850 851 851 852 852 852 853 853 853 853
802 803 805 806 807 808 809 810 811 811 812 813 814 815 816 818 819 820 821 822 823 824 825 827 828 830 832 833 833 834 834 835 835 835 836 836 837 837 838 839 839 840 841 841 842 844 845 846 847 848 848 849 850 850 851 852 852 852 852 852 853 853 853
803 804 805 806 807 808 808 809 810 811 812 813 815 816 817 818 819 820 821 822 824 825 827 829 830 831 832 833 833 834 834 834 835 835 836 836 837 837 837 838 837 838 839 839 841 843 845 847 847 848 849 849 850 850 850 851 852 852 853 852 852 852 852
803 804 805 806 807 808 808 809 809 811 812 813 814 814 815 816 817 819 820 822 824 825 827 829 830 831 832 833 833 833 833 834 834 834 835 835 836 836 836 836 837 837 838 839 840 842 843 846 847 848 849 849 849 850 850 851 852 852 853 852 852 852 852
803 804 804 806 807 807 808 808 809 810 811 811 812 812 814 815 816 817 819 820 822 823 824 826 828 830 831 832 832 832 833 833 833 834 834 834 834 834 834 836 836 837 837 838 839 840 841 843 845 847 849 849 849 849 850 851 852 852 852 852 852 852 851
804 805 805 805 806 807 808 808 809 810 810 810 811 812 813 814 815 816 818 819 820 821 822 824 825 827 829 830 831 832 832 832 832 833 833 833 833 833 833 835 836 836 837 837 839 840 840 841 843 844 847 848 849 849 850 851 851 852 852 852 852 852 852
804 805 805 805 806 806 807 807 808 809 809 809 810 810 811 812 814 815 817 818 820 821 824 824 824 825 827 829 830 830 830 830 830 831 831 831 831 831 833 835 835 836 837 837 838 838 839 840 841 843 845 847 849 849 849 850 851 851 852 852 852 852 852
805 806 805 805 805 806 807 807 807 808 808 808 809 809 811 812 813 814 816 817 819 821 823 824 824 825 826 827 827 827 828 828 828 828 828 828 829 831 833 834 834 835 836 835 836 837 837 838 839 841 843 845 847 849 850 850 850 850 851 851 851 852 851
807 807 806 806 806 806 806 807 807 808 808 809 809 809 810 811 812 813 814 816 817 818 820 822 823 823 824 825 826 826 826 826 826 826 826 827 830 831 832 832 831 832 832 833 834 835 836 836 837 838 840 842 845 847 848 849 849 849 850 850 850 851 851
809 809 808 807 807 807 807 807 807 807 808 809 809 809 810 810 811 812 812 814 815 815 817 819 820 820 821 822 823 823 823 823 824 824 824 826 828 829 829 830 829 829 830 831 833 834 834 835 836 837 838 840 843 844 845 847 848 848 849 849 850 850 851
810 810 810 809 809 808 807 807 806 806 807 807 808 808 808 809 809 810 810 811 812 813 814 815 816 816 817 819 820 820 820 821 821 822 822 824 826 826 827 827 826 827 828 829 831 833 833 834 836 837 838 840 842 843 844 846 847 847 848 848 849 850 850
813 813 812 811 810 809 808 807 806 805 805 806 806 806 807 807 807 807 807 808 810 810 811 811 813 814 814 816 816 817 818 818 819 820 821 822 824 824 824 825 824 825 826 827 828 830 832 834 836 836 838 839 841 842 843 845 846 846 847 848 848 849 850
816 815 814 813 812 810 809 807 806 805 805 804 804 804 805 805 805 805 805 805 806 807 808 809 810 811 811 812 813 814 815 816 817 818 819 821 822 822 822 823 823 823 824 826 827 828 830 833 835 836 837 838 840 841 842 844 845 845 846 847 848 849 849
817 816 815 814 812 811 809 808 807 805 804 804 803 803 802 802 802 802 802 802 803 804 805 806 807 807 808 809 810 811 813 814 815 815 816 818 819 819 820 820 821 823 824 825 826 828 830 832 834 835 837 838 839 840 841 843 844 845 846 847 847 848 848
817 815 814 813 811 810 809 807 806 805 804 803 802 801 801 800 800 800 800 800 800 800 801 803 804 804 805 806 807 808 810 812 813 813 814 816 816 817 818 819 820 822 823 824 825 827 829 831 833 834 835 837 838 840 841 843 844 845 846 846 847 847 847
815 814 813 811 810 808 807 807 805 804 803 802 800 799 798 798 798 798 798 798 798 797 798 800 801 802 802 804 805 805 807 809 809 809 811 812 813 814 816 818 819 821 822 823 825 826 828 831 832 833 834 836 838 840 841 843 844 845 845 846 846 846 847
813 812 811 809 808 806 805 805 804 802 801 800 799 798 796 796 796 795 795 795 795 795 796 797 798 799 799 801 802 802 804 805 806 807 808 810 811 812 814 817 818 819 821 823 825 826 828 830 831 833 834 836 838 840 841 843 844 844 845 845 845 846 846
812 811 809 808 807 805 803 803 801 800 799 798 797 796 795 794 793 792 792 792 792 792 793 794 795 796 796 798 799 799 800 802 803 805 808 809 808 809 812 816 817 818 820 822 825 826 828 830 831 833 834 836 838 839 841 842 843 843 843 844 845 845 846